FW5266 Weather Reports


time (UTC)temp
C
wind
direction
speed
KPH
gust
KPH
rain 1hr
cm
rain 24hr
cm
rain mn
cm
humidity
%
barometer
mb
20260507211545 21 20 12.9 20.9 0.00 0.00 0.00 34 1021.8
20260507210037 20 30 11.3 25.7 0.00 0.00 0.00 35 1022.0
20260507204529 20 356 11.3 19.3 0.00 0.00 0.00 36 1022.2
20260507203110 20 352 8.0 17.7 0.00 0.00 0.00 37 1022.3
20260507201535 20 1 3.2 16.1 0.00 0.00 0.00 38 1022.5
20260507200031 20 353 6.4 16.1 0.00 0.00 0.00 38 1022.7
20260507194536 20 7 8.0 17.7 0.00 0.00 0.00 39 1022.7
20260507193107 19 346 11.3 19.3 0.00 0.00 0.00 42 1022.8
20260507191530 18 17 9.7 22.5 0.00 0.00 0.00 44 1022.9
20260507190029 18 9 8.0 19.3 0.00 0.00 0.00 44 1023.1
20260507183041 17 4 8.0 17.7 0.00 0.00 0.00 52 1023.4
20260507181530 16 2 9.7 17.7 0.00 0.00 0.00 54 1023.5
20260507180033 16 21 12.9 22.5 0.00 0.00 0.00 55 1023.6
20260507174530 16 11 11.3 20.9 0.00 0.00 0.00 55 1023.6
20260507173029 16 2 11.3 22.5 0.00 0.00 0.00 55 1023.7
20260507171605 17 355 14.5 24.1 0.00 0.00 0.00 56 1023.8
20260507170037 17 10 14.5 20.9 0.00 0.00 0.00 55 1023.7
20260507164610 17 329 8.0 17.7 0.00 0.00 0.00 56 1023.7
20260507163033 16 239 6.4 14.5 0.00 0.00 0.00 60 1023.6
20260507161539 16 250 8.0 14.5 0.00 0.00 0.00 63 1023.8
20260507154543 13 253 4.8 9.7 0.00 0.00 0.00 70 1024.2
20260507151532 12 302 1.6 6.4 0.00 0.00 0.00 75 1024.5
20260507150150 12 306 1.6 8.0 0.00 0.00 0.00 79 1024.5
20260507144610 11 317 0.0 4.8 0.00 0.00 0.00 85 1024.6
20260507143031 10 24 0.0 3.2 0.00 0.00 0.00 87 1024.5
20260507141607 8 63 3.2 4.8 0.00 0.00 0.00 89 1024.3
20260507140035 8 90 3.2 6.4 0.00 0.00 0.00 90 1024.2
20260507134608 7 99 3.2 6.4 0.00 0.00 0.00 89 1024.1
20260507130105 7 89 11.3 14.5 0.00 0.00 0.00 88 1024.0
20260507121537 8 61 9.7 16.1 0.00 0.00 0.00 87 1023.8
20260507120029 8 58 9.7 16.1 0.00 0.00 0.00 86 1023.7
20260507114534 8 55 8.0 14.5 0.00 0.00 0.00 86 1023.6
20260507113044 8 61 9.7 17.7 0.00 0.00 0.00 85 1023.5
20260507111549 9 79 8.0 14.5 0.00 0.00 0.00 83 1023.4
20260507110105 10 92 8.0 12.9 0.00 0.00 0.00 83 1023.5
20260507104532 10 50 11.3 17.7 0.00 0.00 0.00 82 1023.3
20260507103042 10 62 12.9 17.7 0.00 0.00 0.00 80 1023.2
20260507100043 11 51 9.7 19.3 0.00 0.00 0.00 76 1023.3
20260507093034 11 105 3.2 6.4 0.00 0.00 0.00 73 1023.3
20260507091530 11 222 1.6 8.0 0.00 0.00 0.00 72 1023.3
20260507090042 12 2 6.4 12.9 0.00 0.00 0.00 69 1023.3
20260507090033 13 333 12.9 20.9 0.00 0.00 0.00 65 1023.3
20260507083033 12 316 12.9 20.9 0.00 0.00 0.00 69 1023.4
20260507073031 15 306 14.5 22.5 0.00 0.00 0.00 54 1023.1
20260507071533 16 285 19.3 30.6 0.00 0.00 0.00 54 1023.1
20260507070030 15 282 17.7 29.0 0.00 0.00 0.00 56 1023.2
20260507064538 14 284 17.7 30.6 0.00 0.00 0.00 63 1023.4
20260507061611 13 356 8.0 17.7 0.00 0.00 0.00 63 1023.7
20260507060106 14 29 11.3 16.1 0.00 0.00 0.00 60 1023.7
20260507054530 15 45 14.5 17.7 0.00 0.00 0.00 56 1023.7
20260507051607 16 319 9.7 20.9 0.00 0.00 0.00 50 1023.8
20260507050030 16 270 16.1 29.0 0.00 0.00 0.00 49 1023.8
20260507044530 16 275 16.1 25.7 0.00 0.00 0.00 48 1023.9
20260507043029 16 271 16.1 25.7 0.00 0.00 0.00 48 1023.9
20260507041531 16 274 14.5 29.0 0.00 0.00 0.00 49 1023.9
20260507040039 17 280 14.5 25.7 0.00 0.00 0.00 48 1023.7
20260507034532 17 279 16.1 30.6 0.00 0.00 0.00 47 1023.7
20260507033108 17 286 20.9 32.2 0.00 0.00 0.00 47 1023.4
20260507030032 18 281 17.7 30.6 0.00 0.00 0.00 46 1023.4
20260507024607 18 292 16.1 33.8 0.00 0.00 0.00 45 1023.2
20260507023031 18 296 25.7 41.8 0.00 0.00 0.00 44 1023.0
20260507021544 19 289 20.9 38.6 0.00 0.00 0.00 44 1023.1
20260507020103 19 318 14.5 27.4 0.00 0.00 0.00 45 1023.1
20260507013107 20 346 11.3 17.7 0.00 0.00 0.00 43 1022.9
20260507011604 20 338 12.9 24.1 0.00 0.00 0.00 42 1022.8
20260507010031 21 330 14.5 27.4 0.00 0.00 0.00 41 1022.6
20260507004530 21 321 16.1 27.4 0.00 0.00 0.00 40 1022.5
20260507003032 21 301 19.3 32.2 0.00 0.00 0.00 39 1022.3
20260507001531 22 293 19.3 30.6 0.00 0.00 0.00 39 1022.1
20260506233029 23 294 22.5 40.2 0.00 0.00 0.00 35 1021.9
20260506231530 24 299 24.1 37.0 0.00 0.00 0.00 35 1021.9
20260506230047 24 289 24.1 38.6 0.00 0.00 0.00 35 1022.0
20260506224532 24 287 25.7 41.8 0.00 0.00 0.00 35 1022.3
20260506223029 23 274 22.5 37.0 0.00 0.00 0.00 35 1022.4
20260506221531 24 280 27.4 48.3 0.00 0.00 0.00 33 1022.4
20260506220029 25 280 29.0 46.7 0.00 0.00 0.00 32 1022.1